RH
73 77 80 84 86 84 84 81 80 84 84 81 78 86 92 91 91 88 94 94 90 88
75 78 81 86 89 85 87 86 85 85 86 83 81 82 93 92 91 88 93 94 94 91
72 74 78 82 87 87 87 88 89 88 85 85 82 79 86 91 88 92 91 92 96 94
78 76 75 81 82 86 87 87 89 88 88 86 85 82 88 88 88 89 89 89 96 95
82 79 82 82 82 81 86 86 88 89 88 87 85 85 89 91 88 95 88 93 97 96
84 83 83 83 82 83 85 87 88 89 90 88 88 89 88 92 90 94 90 92 95 95
83 82 83 82 83 86 88 90 89 88 89 88 91 91 92 94 94 96 95 91 92 93
80 80 80 80 82 84 88 90 89 90 88 88 94 92 96 96 97 97 96 90 92 91
82 81 78 79 82 84 86 88 89 89 91 93 94 94 97 97 97 97 97 94 90 92
84 83 78 79 83 83 84 88 90 89 89 93 94 94 96 97 97 98 97 96 93 96
84 84 80 80 83 85 84 90 92 90 89 94 91 94 96 97 99 99 99 98 98 94
85 86 83 81 88 86 84 88 90 89 91 94 92 93 95 97 98 99 100 100 99 98
83 83 84 84 89 84 86 87 88 89 87 89 95 92 94 97 98 99 99 100 99 98
77 82 80 81 86 86 85 85 89 88 84 82 92 94 93 94 96 98 99 99 100 98
Wind_Speed
13 9 10 12 12 11 12 13 17 16 16 18 17 15 14 11 12 15 14 15 13 9
12 13 12 15 14 12 14 13 17 18 18 18 17 16 15 11 14 14 14 15 12 10
14 13 13 13 15 16 15 16 17 17 17 18 17 17 15 12 15 14 13 13 13 12
13 14 14 13 14 15 17 17 17 17 18 18 18 16 15 14 16 16 17 18 13 15
12 13 13 14 15 15 17 17 17 17 17 17 17 17 16 16 15 16 18 17 15 16
12 12 14 15 15 16 17 18 17 16 17 18 18 18 16 17 16 18 18 16 17 17
12 13 13 15 15 15 16 17 17 16 17 17 17 17 17 17 16 16 17 15 19 18
11 12 13 15 15 15 16 16 16 17 17 17 15 12 16 18 16 17 17 16 17 19
11 12 13 14 15 15 16 16 16 16 16 18 13 27 29 29 16 14 14 13 17 18
10 11 13 14 15 15 16 16 17 17 17 18 18 30 34 35 10 9 12 10 16 15
9 10 12 13 14 15 14 15 16 17 18 18 16 32 35 37 12 10 10 7 14 17
9 11 11 13 14 14 14 15 15 15 17 18 17 32 34 30 15 11 10 5 9 9
9 11 11 12 14 14 13 14 13 16 15 21 17 29 34 30 14 12 9 7 6 14
9 10 11 12 11 13 14 14 13 15 14 15 16 20 33 35 16 12 9 7 5 4
Wind_Direction
320 317 311 313 311 305 303 307 309 310 307 303 303 301 298 292 294 292 299 232 212 197
320 316 311 309 304 301 303 305 304 305 301 302 301 298 298 293 295 289 280 258 205 198
315 314 311 308 305 306 304 305 303 303 302 301 299 297 296 295 293 288 279 278 200 191
311 312 310 305 305 306 306 305 304 303 302 299 298 296 296 290 281 278 277 293 200 193
308 309 307 306 306 307 305 306 304 303 298 299 298 296 294 293 291 289 284 296 203 193
310 310 308 307 309 307 305 306 306 304 303 300 298 294 291 283 282 276 280 272 225 187
308 310 307 306 305 305 306 304 306 307 301 299 295 291 288 286 279 279 280 271 246 189
304 305 306 306 308 308 306 303 306 307 307 303 298 299 303 291 284 272 274 261 257 192
301 305 308 308 311 312 308 310 312 313 311 312 309 313 312 306 275 257 263 261 278 193
297 305 309 309 312 314 315 314 314 316 319 316 317 322 326 331 305 267 259 262 275 191
301 302 308 311 312 313 316 315 314 316 317 319 320 332 331 339 316 302 271 276 300 193
302 302 308 311 312 315 316 313 312 314 315 321 323 331 334 342 328 322 305 307 308 246
294 299 302 302 307 314 310 307 314 312 313 320 324 328 335 344 340 330 326 313 300 327
293 298 295 301 310 310 312 309 311 314 316 321 327 327 335 341 341 332 318 313 317 300